Content
SEND FEEDBACK

Daily
Averages
Monthly
Summary
Marshall Islands

WOTJE, MARSHALL ISLANDS


Home > Oceania > Marshall Islands
Elevation: 26 feet     Latitude: 08 43N     Longitude: 167 43E

WEATHER
 
SELECT A DAY
Number of Records: 242,849;   Date Range: 7/1/96 - 7/23/14
 
SHARE

PRINT THIS DATA

[ ← Previous Day ]
WEATHER ALMANAC - JANUARY 31, 2013
[ Next Day → ]
[ °C ]   °F
Weather ElementAverageHighLow
Temperature82.1 °F86.5 °F (2:40 pm)79.3 °F (4:40 am)
Dewpoint64.4 °F67.1 °F (7:00 pm)61.5 °F (8:20 am)
Humidity55.1 %62 % (8:00 pm)45 % (1:40 pm)
Barometer29.87 in29.93 in (10:20 am)29.80 in (4:00 pm)
Wind Speed17.7 mph21.9 mph (9:40 pm)
Wind Gust26.5 mph (12:40 am)
Weather ElementAverage
Visibility10 mi
Wind DirectionENE (61.8 °)

Weather ElementTotal
Precipitation---
Cooling Degree Days17.9 (Base 65)
Growing Degree Days32.9 (Base 50)
Averaged from 71 records on January 31, 2013
WEATHER CONDITIONS BREAKOUT
WIND DIRECTION BREAKOUT
WEATHER BY HOUR - JANUARY 31, 2013
[ °C ]   °F
Local TimeTemperatureDewpointHumidityBarometerVisibilityWind DirectionWind SpeedGust SpeedPrecipitationEventsConditions
12:20 AM80.1 °F65.3 °F61 %29.91 in10.0 miNE (50°)20.7 mph24.2 mphClear
12:40 AM80.1 °F65.3 °F61 %29.91 in10.0 miNE (40°)20.7 mph26.5 mphScattered Clouds
1:00 AM79.9 °F65.5 °F61 %29.91 in10.0 miNE (50°)19.6 mph24.2 mphClear
1:20 AM79.9 °F65.3 °F61 %29.90 in10.0 miNE (40°)19.6 mph23.0 mphClear
1:40 AM79.9 °F65.3 °F61 %29.90 in10.0 miNE (50°)19.6 mphClear
2:00 AM79.7 °F65.3 °F61 %29.89 in10.0 miNE (40°)18.4 mph21.9 mphClear
2:20 AM79.7 °F65.1 °F61 %29.89 in10.0 miNE (40°)18.4 mphScattered Clouds
2:40 AM79.7 °F64.9 °F61 %29.88 in10.0 miNE (40°)17.3 mphMostly Cloudy
3:00 AM79.7 °F64.9 °F61 %29.88 in10.0 miNE (40°)16.1 mphMostly Cloudy
3:20 AM79.5 °F64.8 °F60 %29.87 in10.0 miNE (50°)16.1 mphScattered Clouds
3:40 AM79.5 °F64.8 °F60 %29.87 in10.0 miNE (40°)18.4 mph21.9 mphScattered Clouds
4:00 AM79.5 °F64.8 °F60 %29.87 in10.0 miNE (40°)15.0 mphScattered Clouds
4:20 AM79.5 °F64.6 °F60 %29.86 in10.0 miNE (40°)16.1 mph23.0 mphScattered Clouds
4:40 AM79.3 °F64.2 °F60 %29.86 in10.0 miNE (50°)18.4 mph24.2 mphScattered Clouds
5:00 AM79.3 °F64.0 °F59 %29.87 in10.0 miNE (50°)16.1 mphClear
5:20 AM79.3 °F63.7 °F59 %29.87 in10.0 miNE (50°)16.1 mphClear
5:40 AM79.3 °F63.1 °F57 %29.87 in10.0 miNE (50°)18.4 mphClear
6:00 AM79.3 °F63.0 °F57 %29.87 in10.0 miNE (50°)15.0 mphClear
6:20 AM79.3 °F63.0 °F57 %29.87 in10.0 miNE (50°)16.1 mph21.9 mphScattered Clouds
6:40 AM79.3 °F63.0 °F57 %29.88 in10.0 miNE (50°)17.3 mphScattered Clouds
7:00 AM79.3 °F62.6 °F56 %29.88 in10.0 miNE (50°)19.6 mph23.0 mphClear
7:20 AM79.3 °F62.4 °F56 %29.88 in10.0 miNE (50°)16.1 mphClear
7:40 AM79.5 °F62.1 °F55 %29.89 in10.0 miENE (60°)17.3 mph21.9 mphClear
8:00 AM79.7 °F61.9 °F54 %29.90 in10.0 miNE (50°)16.1 mphClear
8:20 AM80.1 °F61.5 °F53 %29.90 in10.0 miENE (60°)17.3 mph20.7 mphClear
8:40 AM80.6 °F61.5 °F52 %29.91 in10.0 miENE (60°)16.1 mphClear
9:00 AM81.0 °F61.9 °F52 %29.92 in10.0 miENE (70°)16.1 mphClear
9:20 AM81.5 °F62.1 °F52 %29.92 in10.0 miENE (60°)15.0 mphClear
9:40 AM81.9 °F61.9 °F51 %29.92 in10.0 miENE (70°)16.1 mphClear
10:00 AM82.4 °F62.2 °F50 %29.92 in10.0 miENE (70°)15.0 mphClear
10:20 AM82.9 °F62.6 °F50 %29.93 in10.0 miENE (70°)16.1 mphClear
10:40 AM83.5 °F62.8 °F50 %29.92 in10.0 miENE (70°)18.4 mphClear
11:00 AM84.0 °F63.0 °F49 %29.91 in10.0 miEast (80°)16.1 mphClear
11:20 AM84.7 °F63.3 °F48 %29.90 in10.0 miENE (70°)18.4 mphClear
11:40 AM85.1 °F63.7 °F49 %29.89 in10.0 miENE (60°)17.3 mphClear
12:00 PM85.6 °F64.0 °F48 %29.88 in10.0 miENE (70°)18.4 mphClear
12:20 PM86.0 °F63.9 °F47 %29.88 in10.0 miENE (70°)18.4 mphClear
12:40 PM86.2 °F63.3 °F46 %29.87 in10.0 miENE (70°)18.4 mphClear
1:00 PM86.0 °F63.0 °F46 %29.86 in10.0 miENE (70°)18.4 mphClear
1:20 PM86.2 °F63.0 °F46 %29.85 in10.0 miENE (70°)16.1 mphClear
1:40 PM86.2 °F62.8 °F45 %29.84 in10.0 miENE (60°)18.4 mphClear
2:00 PM86.2 °F63.0 °F46 %29.84 in10.0 miENE (60°)18.4 mphClear
2:20 PM86.2 °F63.9 °F47 %29.83 in10.0 miENE (70°)17.3 mphClear
2:40 PM86.5 °F64.2 °F47 %29.82 in10.0 miENE (70°)18.4 mphScattered Clouds
3:00 PM86.5 °F64.6 °F48 %29.81 in10.0 miENE (70°)18.4 mphScattered Clouds
3:20 PM86.2 °F64.9 °F49 %29.81 in10.0 miENE (70°)17.3 mphClear
3:40 PM86.2 °F65.1 °F49 %29.81 in10.0 miEast (80°)18.4 mph23.0 mphScattered Clouds
4:00 PM86.2 °F65.1 °F49 %29.80 in10.0 miEast (80°)16.1 mphScattered Clouds
4:20 PM86.0 °F65.7 °F50 %29.80 in10.0 miEast (80°)18.4 mph21.9 mphScattered Clouds
4:40 PM86.0 °F65.8 °F51 %29.80 in10.0 miEast (80°)17.3 mphMostly Cloudy
5:00 PM85.8 °F66.0 °F51 %29.80 in10.0 miENE (70°)17.3 mphMostly Cloudy
5:20 PM85.5 °F66.2 °F52 %29.80 in10.0 miENE (70°)17.3 mphScattered Clouds
5:40 PM84.9 °F66.6 °F54 %29.81 in10.0 miEast (80°)18.4 mphMostly Cloudy
6:00 PM84.4 °F66.6 °F55 %29.82 in10.0 miEast (80°)16.1 mphScattered Clouds
6:20 PM83.8 °F66.7 °F56 %29.82 in10.0 miENE (70°)17.3 mph20.7 mphScattered Clouds
6:40 PM83.1 °F66.9 °F58 %29.82 in10.0 miENE (60°)17.3 mphScattered Clouds
7:00 PM82.6 °F67.1 °F59 %29.83 in10.0 miENE (70°)19.6 mphMostly Cloudy
7:20 PM82.0 °F67.1 °F60 %29.83 in10.0 miENE (60°)16.1 mphMostly Cloudy
7:40 PM81.7 °F67.1 °F61 %29.84 in10.0 miENE (60°)16.1 mphScattered Clouds
8:00 PM81.3 °F67.1 °F62 %29.84 in10.0 miENE (70°)18.4 mphScattered Clouds
8:20 PM81.1 °F66.9 °F62 %29.85 in10.0 miENE (70°)17.3 mphMostly Cloudy
8:40 PM81.1 °F66.7 °F61 %29.86 in10.0 miENE (70°)18.4 mphMostly Cloudy
9:00 PM81.0 °F66.2 °F61 %29.86 in10.0 miENE (70°)19.6 mphScattered Clouds
9:20 PM80.8 °F66.0 °F61 %29.87 in10.0 miENE (70°)20.7 mphScattered Clouds
9:40 PM80.8 °F65.5 °F59 %29.87 in10.0 miENE (70°)21.9 mphScattered Clouds
10:00 PM80.8 °F65.3 °F59 %29.88 in10.0 miENE (70°)17.3 mphScattered Clouds
10:20 PM80.6 °F65.1 °F59 %29.88 in10.0 miENE (60°)20.7 mphMostly Cloudy
10:40 PM80.6 °F64.8 °F58 %29.89 in10.0 miENE (70°)18.4 mphScattered Clouds
11:00 PM80.4 °F64.8 °F59 %29.88 in10.0 miEast (80°)18.4 mphScattered Clouds
11:20 PM80.4 °F64.8 °F59 %29.88 in10.0 miENE (70°)17.3 mphMostly Cloudy
11:40 PM80.2 °F64.6 °F59 %29.87 in10.0 miENE (70°)19.6 mphScattered Clouds
Hourly data recorded from PKWA, located miles away from Wotje, Marshall Islands







STORIES FROM OUR PARTNERS